Location: Br�ttisellen
(47.4227°N, 8.6287°E)
Time: 11:11:46
(UTC+00:00)

Cosmos 2228 - Pass Details

Date: 09 April 2020
Orbit: 589 x 619 km, 82.5° (Epoch: 23 May)

Event Time Altitude Azimuth Distance (km) Brightness Sun altitude
Rises 19:06:30 0° 193° (SSW) 2,837 6.3 -10.4°
Reaches altitude 10° 19:08:41 10° 196° (SSW) 1,944 5.5 -10.7°
Maximum altitude 19:12:59 71° 280° (W) 645 3.3 -11.4°
Drops below altitude 10° 19:17:22 10° 5° (N) 1,979 5.9 -12.0°
Sets 19:19:37 0° 8° (N) 2,893 6.8 -12.4°
